Location: Martley
(52.2333°N, 2.3667°W)
Time: 19:34:39
(UTC+00:00)

Cosmos 2227 Rocket - Pass Details

Date: 11 December 2019
Orbit: 840 x 844 km, 71.0° (Epoch: 24 January)

Event Time Altitude Azimuth Distance (km) Brightness Sun altitude
Exits shadow 05:13:09 28° 350° (N) 1,542 3.4 -25.4°
Drops below altitude 10° 05:16:33 10° 21° (NNE) 2,476 4.8 -24.9°
Sets 05:19:16 0° 31° (NNE) 3,413 5.7 -24.5°
